NOAA NWS Hourly Roundups by Site

Regional Weather Roundup for Seattle, WA

To Select Another Site Choose from List

Select Site:  

000
ASUS46 KSEW 070320
RWRWA

WASHINGTON REGIONAL WEATHER ROUNDUP
NATIONAL WEATHER SERVICE SEATTLE WA
700 PM PST MON DEC 06 2021

NOTE:"FAIR" INDICATES FEW OR NO CLOUDS BELOW 12,000 FEET WITH NO
SIGNIFICANT WEATHER AND/OR OBSTRUCTIONS TO VISIBILITY.

WAZ507-509-555>559-070400-
SEATTLE, TACOMA, EVERETT, AND VICINITY

CITY           SKY/WX    TMP DP  RH WIND       PRES   REMARKS
EVERETT        FOG       41  40  96 E3        29.98R VSB 1
BOEING FIELD   LGT RAIN  44  44 100 CALM      29.98R FOG
RENTON         CLOUDY    44  42  93 CALM      29.98R FOG
SEATAC AIRPORT DRIZZLE   44  43  96 NE3       29.97S FOG
JBLM-MCCHORD   CLOUDY    43  43 100 CALM      29.95F
PUYALLUP       CLOUDY    45  45 100 CALM      29.96R
BREMERTON      LGT RAIN  41  41 100 NE6       29.98R FOG
JBLM-FT LEWIS  CLOUDY    44  42  92 CALM      29.95R FOG
TACOMA NARROWS CLOUDY    42  42 100 CALM      29.96S FOG
$$

WAZ001-503-506-510-514-515-070400-
NORTH INTERIOR

CITY           SKY/WX    TMP DP  RH WIND       PRES   REMARKS
BELLINGHAM     CLOUDY    36  35  96 NE6       29.99F
FRIDAY HARBOR  CLOUDY    39  38  96 CALM      30.00S FOG
EASTSOUND      LGT RAIN  39  37  93 VRB3G12   29.99F
PORT ANGELES   CLOUDY    40  38  93 CALM      29.98S
EDIZ HOOK      CLOUDY    41  39  91 CALM      29.99F
PORT TOWNSEND  CLOUDY    39  39 100 CALM      29.98F FOG
NAS WHIDBEY    CLOUDY    41  39  93 E6        30.03R
ARLINGTON      LGT RAIN  38  37  97 N6        30.00R FOG
BURLINGTON     CLOUDY    39  37  93 N5        30.00R
$$

WAZ020-022-039-040-504-511-512-070400-
SOUTHWEST INTERIOR

CITY           SKY/WX    TMP DP  RH WIND       PRES   REMARKS
SHELTON        LGT RAIN  43  42  97 NE3       29.94R FOG
OLYMPIA        CLOUDY    45  44  97 W5        29.96S FOG
CHEHALIS       CLOUDY    46  46 100 S8G15     29.97R FOG
KELSO          CLOUDY    46  45  96 SE6       29.98S
VANCOUVER      CLOUDY    46  46 100 E5        29.99S
SCAPPOOSE, OR  CLOUDY    46  44  93 CALM      29.99R FOG
PORTLAND, OR   LGT RAIN  48  45  89 E7        29.99F
$$

WAZ021-516-517-070400-
WASHINGTON COAST

CITY           SKY/WX    TMP DP  RH WIND       PRES   REMARKS
FORKS          LGT RAIN  41  41 100 E3        29.92S FOG
HOQUIAM        CLOUDY    46  43  89 E9        29.93R
ASTORIA, OR    CLOUDY    50  48  93 S13G20    29.93S FOG
$$

WAZ019-023-024-040-567>569-070400-
CASCADE MOUNTAINS AND COLUMBIA GORGE

CITY           SKY/WX    TMP DP  RH WIND       PRES   REMARKS
STAMPEDE PASS  CLOUDY    30  29  96 CALM      29.93R FOG
TROUTDALE, OR  CLOUDY    47  43  86 E6        30.00S FOG
HOOD RIVER, OR DRIZZLE   39  37  93 CALM      30.01S
THE DALLES, OR CLOUDY    43  37  79 W3        30.04S
$$

WAZ026-027-041>044-520-521-070400-
EAST SLOPES

CITY           SKY/WX    TMP DP  RH WIND       PRES   REMARKS
OMAK           FLURRIES  29  25  85 N6        30.09R
WENATCHEE      CLOUDY    32  23  69 CALM      30.08R
ELLENSBURG     CLOUDY    32  28  85 SE3       30.03S
YAKIMA         CLOUDY    36  28  73 E5        30.06R
SUNNYSIDE ARPT CLOUDY    37  32  82 CALM      30.07R
YAKIMA TC      CLOUDY    35  26  68 CALM      30.03S
$$

WAZ028-034-035-070400-
COLUMBIA BASIN

CITY           SKY/WX    TMP DP  RH WIND       PRES   REMARKS
EPHRATA        CLOUDY    32  24  72 NE6       30.07R
MOSES LAKE     CLOUDY    32  25  75 N7        30.08R
PASCO          CLOUDY    38  30  73 NW7       30.08S
RICHLAND ARPT  CLOUDY    38  30  71 NW10      30.10R
HERMISTON, OR  CLOUDY    39  32  76 NE9       30.05R
$$

WAZ036>038-070400-
NORTHEAST WASHINGTON

CITY           SKY/WX    TMP DP  RH WIND       PRES   REMARKS
SPOKANE GEIGER FLURRIES  26  22  84 NE7       30.02S
SPOKANE FELTS  CLOUDY    28  24  85 E7        30.04F
FAIRCHILD AFB  FLURRIES  25  25 100 NE6       30.00S
COEURDALENE,ID MOCLDY    25  22  88 NE10      30.02F WCI  15
DEER PARK      FLURRIES  26  19  74 N6        30.03F
$$

WAZ029>033-070400-
SOUTHEAST WASHINGTON

CITY           SKY/WX    TMP DP  RH WIND       PRES   REMARKS
PULLMAN        CLOUDY    31  29  92 NE3       30.01R
LEWISTON, ID   CLOUDY    35  31  85 NE3       30.03S
WALLA WALLA    CLOUDY    35  34  96 S7        30.02F
PENDLETON, OR  LGT RAIN  36  35  96 NE9       30.01S
$$


 

View Past Reports for Seattle, WA.

Products Courtesy of NOAA-NWS
NWS Information Parsing Script by Ken True at Saratoga Weather - Script by SE Lincoln Weather.